ECHOSTAR 21

Last updated on Sun Jun 21 2026 00:03:07 GMT+0000 (Coordinated Universal Time)

1 42749U 17032A 26171.32244802 .00000060 00000+0 00000+0 0 9995 2 42749 1.7707 355.9620 0002217 95.2291 303.6824 1.00271322 33134
UTC large
Height (km)
Speed (km/s)
/
Latitude / Longitude
Inclination (degrees)
Orbital Period (minutes)
Azimuth
Elevation
Range (km)
Doppler Factor

Next 0 passes for location: London (51.5072 / 0.1276)

No passes found over London.
ECHOSTAR 21